Theta_e
297 300 299 300 299 301 302 302 303 303 304 306 308 310 312 313 315 317 317 317 318 317 317 318 318 318 318 317 318 318 319 319 320 320 319 319 320 319 319 318 318 319 319 319 320 320 319 318 318 319 319 318 318 317 317 317 316 314 313 313 313 313 312 310 308 308 309 302 303 306 304 305 302 302 303 303 302 301 299 301 301 300 299 299 299
298 299 297 299 298 301 301 302 302 303 303 305 306 307 309 311 313 313 313 316 316 316 316 317 317 317 317 317 317 317 318 319 319 319 319 318 318 319 319 318 317 317 318 318 318 319 319 318 318 318 318 318 318 317 317 317 317 316 315 313 313 312 313 311 309 309 308 302 304 299 300 303 305 302 302 301 301 300 298 298 299 299 299 298 298
297 296 297 297 299 299 299 300 300 300 301 302 303 304 306 307 308 310 311 313 313 314 315 315 316 316 316 316 316 317 317 317 318 318 318 317 317 318 318 317 316 316 316 316 317 317 317 316 317 317 318 316 316 316 316 316 316 315 315 314 312 312 312 312 311 309 309 310 308 306 302 300 304 304 302 302 302 300 298 297 297 296 296 297 297
296 295 295 296 296 296 297 297 296 296 296 298 299 300 302 302 304 306 308 310 311 312 312 314 314 314 314 314 314 315 315 315 315 315 317 316 316 317 316 316 316 316 316 315 315 315 316 316 316 316 316 315 315 315 315 315 315 314 313 313 313 312 312 311 311 310 310 309 300 306 302 302 299 297 298 296 296 294 296 295 294 295 295 295 295
293 294 292 293 294 294 295 294 293 294 295 295 295 296 297 298 299 301 303 305 308 309 310 309 310 312 313 314 314 314 314 314 315 315 315 315 315 316 316 316 315 316 316 315 310 315 315 315 316 316 315 314 315 314 314 313 313 313 312 312 312 312 312 312 311 310 309 308 307 304 303 302 301 295 297 298 294 292 289 291 292 292 293 294 293
289 290 291 292 294 293 294 293 293 293 293 293 294 295 296 296 298 299 301 304 305 306 307 308 308 309 310 312 312 313 313 312 313 313 314 314 313 314 314 314 314 315 315 315 315 315 315 316 316 315 315 314 314 314 314 313 313 312 312 312 312 311 311 311 311 311 310 311 311 310 294 298 294 291 291 294 295 293 290 289 288 289 289 290 291
288 289 290 289 291 293 293 293 293 292 293 293 293 293 294 295 296 298 298 299 300 302 303 304 305 305 308 309 310 311 313 312 313 313 313 314 313 313 313 313 313 314 314 315 316 316 316 316 316 316 315 315 315 314 314 313 312 312 312 312 312 311 311 311 311 311 311 311 310 309 307 297 296 298 290 290 290 291 294 291 289 290 288 289 290
289 289 288 289 290 292 292 291 292 292 292 292 293 293 293 294 295 295 295 297 298 299 301 303 304 303 305 306 308 309 309 310 311 312 312 313 312 312 312 312 313 313 314 315 315 315 316 316 316 316 316 316 315 315 314 313 312 311 311 311 311 310 310 310 309 309 308 307 307 305 299 297 290 287 286 288 289 289 289 292 294 294 289 287 289
289 288 288 289 290 290 290 291 291 291 291 292 292 292 293 292 293 293 293 294 296 297 299 300 300 302 304 305 305 306 307 308 310 310 311 311 312 313 314 313 313 313 314 315 315 316 316 316 316 317 313 305 304 305 308 308 314 312 311 311 310 310 310 310 310 308 307 306 305 303 299 295 293 291 288 288 290 294 294 291 292 294 291 287 287
289 289 289 290 289 289 289 288 290 289 290 291 291 291 291 291 291 291 292 292 293 293 293 295 297 298 300 301 303 306 308 310 303 301 301 308 312 313 313 313 313 313 313 314 314 315 315 316 315 303 301 300 299 300 301 301 301 309 314 313 311 310 308 305 304 303 302 302 302 302 301 300 296 293 293 292 293 291 289 289 290 291 287 288 287
288 288 289 289 289 289 289 290 289 289 289 289 289 290 290 290 289 290 290 290 291 291 290 293 294 295 297 298 299 301 304 306 300 302 302 301 304 310 313 314 314 314 313 314 313 313 314 314 315 308 301 299 300 298 299 299 300 299 299 301 303 310 307 302 303 303 302 303 303 302 301 301 300 295 294 295 292 292 293 291 292 290 290 290 291
287 288 288 288 289 290 290 290 289 289 288 289 289 288 288 288 288 289 289 289 290 288 289 291 292 292 294 294 295 296 298 297 299 300 299 299 297 302 306 310 312 313 313 313 313 313 313 313 313 313 312 310 311 309 302 298 298 299 299 299 299 301 304 308 305 301 301 301 301 301 302 301 301 295 294 293 293 291 291 290 290 291 290 290 291
285 287 287 288 288 289 288 288 288 289 289 289 288 288 287 287 287 288 288 288 287 288 289 289 289 290 290 292 292 292 293 295 296 296 296 297 297 297 301 304 306 308 311 312 311 311 310 310 310 312 313 300 299 308 309 307 298 297 297 297 297 297 299 300 302 307 308 303 302 302 302 301 300 298 296 296 296 293 291 290 290 290 291 291 292
284 285 286 286 286 286 287 287 287 288 288 288 288 287 287 288 287 286 286 286 287 287 287 287 288 288 289 290 290 291 291 293 295 295 295 295 296 296 298 299 301 303 305 308 310 311 312 310 309 309 309 306 305 306 308 308 309 306 303 302 303 299 296 296 297 296 299 305 305 303 304 301 302 301 298 296 294 293 292 291 291 290 290 291 291
284 285 285 285 286 286 286 286 286 286 287 287 287 287 286 286 287 287 287 286 286 287 287 287 287 287 288 288 289 290 291 293 294 294 294 295 295 295 296 297 298 299 301 304 306 307 309 310 309 308 307 303 305 304 304 306 306 307 305 304 304 303 303 302 301 301 301 303 305 306 306 303 303 301 299 297 297 298 297 295 293 291 289 286 284
284 284 284 284 285 285 285 285 285 285 286 286 286 286 286 286 286 286 286 286 286 285 286 285 286 287 287 287 287 288 289 292 293 293 293 294 295 294 295 296 296 297 298 300 301 304 306 307 307 307 308 307 301 299 300 304 304 302 299 301 301 302 303 300 300 301 302 305 305 305 305 303 301 300 298 297 296 295 291 288 289 288 288 288 287
283 283 283 283 283 283 283 284 284 284 284 285 285 285 285 286 286 286 285 286 286 286 286 286 286 286 286 287 287 287 287 289 291 292 292 293 293 293 294 294 295 296 297 298 299 300 301 302 302 303 303 302 298 299 299 297 301 301 300 298 299 298 299 299 296 297 297 298 299 300 301 301 300 300 299 298 295 293 291 290 288 288 288 287 287
282 283 283 283 283 283 283 282 283 283 283 283 284 284 285 285 285 285 285 285 285 286 286 286 286 285 286 286 286 286 287 288 290 291 292 292 292 292 292 292 293 293 295 295 297 298 298 292 292 298 298 299 297 298 299 297 298 298 297 295 294 295 296 295 295 296 294 295 295 295 296 297 297 298 298 297 296 293 292 292 291 289 289 290 289
283 283 283 283 283 282 282 282 282 282 282 283 283 284 284 284 285 285 285 285 285 286 286 286 286 286 285 286 285 286 287 288 289 291 291 292 291 291 291 291 291 291 292 293 293 294 295 293 291 292 294 295 296 297 297 296 298 298 298 297 296 296 298 294 294 293 292 292 293 293 292 293 294 295 294 295 294 292 294 295 291 290 291 290 288
283 282 283 283 283 282 282 282 282 282 282 283 283 283 284 284 284 284 284 285 285 285 285 285 285 286 285 285 286 286 287 287 287 290 291 291 292 290 291 289 289 290 291 291 291 292 293 294 293 294 296 296 296 296 296 296 296 297 297 297 296 296 297 293 293 294 293 293 294 292 292 291 290 290 290 291 291 290 292 293 291 292 292 291 289
282 283 283 283 283 283 283 282 283 283 282 283 283 283 283 283 283 283 284 284 284 284 284 284 285 285 284 284 285 285 286 286 286 289 290 291 292 291 289 290 290 290 290 290 291 291 292 293 293 293 294 295 295 295 295 296 295 295 296 296 296 296 294 293 292 290 292 292 291 291 290 289 289 289 290 289 290 290 290 291 290 292 293 292 290
282 282 283 283 283 282 282 283 283 283 284 284 284 283 283 283 283 283 283 283 283 283 283 284 284 285 285 284 284 285 285 285 285 287 289 290 291 291 290 289 290 290 289 289 290 291 291 292 292 292 293 293 294 295 295 296 295 294 295 295 296 296 295 294 293 292 291 291 291 290 289 288 288 288 289 289 289 289 289 290 288 289 291 292 292
282 282 282 282 282 282 282 282 283 284 284 284 285 284 284 283 284 284 284 283 283 283 283 283 284 284 285 285 285 285 285 285 286 286 287 289 290 291 291 291 291 290 289 289 289 290 291 291 291 290 291 292 293 294 294 295 294 294 295 295 295 294 293 294 292 292 291 290 289 289 288 288 288 288 288 288 288 288 288 288 287 287 285 283 284
281 281 281 281 281 281 282 282 283 283 283 284 284 284 284 284 284 284 284 284 284 284 284 283 283 283 284 285 285 285 286 285 285 286 286 288 290 291 291 292 292 290 289 290 290 290 290 290 290 291 290 291 291 292 293 292 292 294 294 294 293 292 292 292 291 290 290 289 289 288 288 288 287 288 288 288 287 286 285 284 284 284 283 282 282
280 280 279 280 280 281 281 281 281 282 282 283 283 283 283 283 283 284 284 284 285 284 284 284 283 283 283 284 285 285 286 285 286 286 286 286 288 290 290 291 291 291 289 289 289 290 290 290 290 289 289 290 290 290 290 290 291 292 292 292 290 292 291 291 290 289 289 289 289 289 289 288 288 288 286 284 282 281 281 280 280 279 279 279 278
280 280 280 280 280 280 280 280 280 281 281 282 282 282 283 283 283 283 283 284 284 284 284 284 283 283 283 284 284 285 285 284 285 286 285 286 286 288 288 289 288 288 288 288 288 288 288 288 288 288 288 288 288 288 288 289 289 289 289 289 290 290 290 290 289 289 289 290 289 289 289 288 287 285 283 282 282 281 280 279 279 279 280 280 279
279 279 279 279 279 279 279 280 280 280 280 280 281 281 282 282 283 283 283 282 283 283 284 283 283 283 283 284 284 285 285 285 285 285 286 286 287 287 288 288 287 287 287 288 288 288 288 288 288 288 288 288 287 287 287 288 288 289 289 289 289 290 290 290 290 290 290 290 289 289 288 286 285 283 282 282 282 281 282 281 281 280 280 281 279
278 278 277 277 278 278 279 280 279 278 279 279 280 280 281 281 281 281 282 283 283 283 284 284 283 284 284 284 285 285 285 284 284 284 286 287 288 288 288 287 287 288 288 288 288 288 288 288 288 287 287 287 288 288 288 288 288 288 289 289 289 289 288 288 288 289 289 289 288 286 285 284 284 284 283 282 283 281 281 281 281 280 280 280 279
277 275 276 276 276 278 277 277 277 277 277 278 280 281 280 281 282 282 283 283 283 283 284 284 285 285 285 285 285 285 285 285 285 287 287 288 287 287 287 287 287 288 287 289 288 288 288 288 288 287 287 287 287 287 287 287 288 288 287 287 288 288 288 288 288 288 288 288 287 286 285 284 284 283 283 282 282 281 281 281 281 280 280 281 279
274 274 275 275 275 275 275 276 276 277 278 278 278 279 282 282 282 282 282 284 285 286 286 284 285 285 285 286 286 285 285 286 288 288 288 288 288 288 288 289 289 288 288 289 288 287 287 287 287 287 287 287 287 287 287 287 287 287 287 286 287 287 287 287 287 288 287 287 287 286 285 284 283 283 282 282 282 280 280 280 279 279 278 279 276
273 273 274 273 274 274 275 275 276 277 278 278 278 277 277 279 282 283 284 284 284 285 286 286 287 286 286 285 286 287 287 287 288 288 288 288 288 288 288 288 289 289 289 287 286 286 286 286 287 287 287 287 287 287 287 287 287 287 287 287 286 286 286 286 287 287 287 287 286 286 285 284 284 283 282 282 281 279 279 279 279 278 278 276 274
271 271 272 272 274 275 276 276 276 276 277 277 277 276 276 276 278 281 283 283 284 285 285 285 285 286 286 286 285 286 286 287 287 287 287 287 287 287 288 288 289 289 289 289 286 285 286 286 286 287 287 287 287 287 287 287 287 287 287 286 286 286 286 286 287 287 287 287 286 286 285 284 284 283 283 282 281 279 279 278 278 277 276 275 274
270 270 271 273 274 275 275 275 275 275 275 275 276 276 276 276 275 276 279 282 282 283 284 285 285 286 286 286 286 286 286 286 286 286 286 287 287 287 287 288 289 289 289 287 285 285 286 286 286 287 287 287 287 287 287 287 287 287 287 287 286 287 286 287 287 287 287 287 286 286 285 285 284 283 282 282 281 279 278 277 277 277 276 274 273
271 272 273 274 274 274 275 274 274 274 275 275 275 276 276 276 276 276 276 277 279 281 283 284 285 285 285 286 286 286 286 286 286 286 286 286 286 287 287 287 289 289 288 286 285 285 285 286 286 286 287 287 287 287 287 287 287 287 287 287 287 287 287 286 286 286 286 286 286 286 285 285 284 283 282 281 280 279 277 277 277 276 274 273 272
274 274 275 275 274 274 274 274 274 274 274 274 274 275 275 276 277 277 276 276 276 277 278 281 284 284 284 284 285 286 286 285 286 286 286 286 287 287 288 286 285 286 286 286 286 285 285 286 286 286 287 287 287 287 287 287 287 287 287 287 287 287 287 286 286 286 286 286 285 285 285 284 284 283 282 280 279 278 277 277 277 276 275 273 272
273 273 273 273 273 273 273 272 272 273 273 273 274 274 275 276 276 276 277 278 278 277 278 280 281 283 284 284 285 284 285 285 285 285 285 286 287 287 285 284 285 285 285 285 285 286 286 286 286 286 287 287 287 287 288 287 287 287 288 287 287 287 287 286 286 285 285 286 285 285 284 283 283 282 281 280 279 278 277 277 276 276 275 274 273
270 270 270 270 270 270 270 270 271 271 272 273 273 273 274 275 276 276 277 277 277 278 278 279 280 280 282 282 284 284 285 285 285 285 285 286 287 286 285 285 285 285 285 285 285 285 285 286 286 287 287 287 287 287 287 287 288 287 287 287 287 287 287 287 286 285 285 285 285 284 283 283 282 281 281 279 278 278 277 277 276 275 275 274 273
268 268 268 268 268 268 268 268 269 271 271 271 272 273 273 274 275 275 276 276 276 277 277 277 278 278 278 279 283 283 282 282 282 282 283 284 285 285 285 285 285 284 284 285 285 285 285 286 286 286 287 287 287 287 287 287 288 288 287 287 287 287 286 286 285 285 285 284 284 283 282 282 281 281 280 279 278 277 277 276 276 275 274 274 273
266 267 267 267 267 266 267 268 268 269 269 270 271 272 272 273 273 274 274 275 275 275 276 277 277 277 278 280 278 279 279 278 278 279 281 282 284 284 284 284 284 284 285 285 285 285 285 285 286 286 286 287 287 287 287 287 287 287 287 287 287 287 286 286 285 284 284 283 283 283 282 281 280 280 279 279 278 277 276 276 275 275 274 273 273
264 263 264 266 266 266 267 268 268 268 269 269 269 270 271 271 272 272 272 273 274 275 275 275 275 276 276 276 276 277 277 277 277 278 279 280 281 282 283 283 283 283 283 283 283 283 283 283 284 284 285 286 286 287 287 287 287 287 287 287 286 286 286 285 285 284 283 283 282 282 281 280 279 279 278 278 278 277 276 275 275 275 274 273 273
262 263 264 265 266 266 267 267 267 268 268 268 269 269 269 270 271 272 273 273 273 273 273 273 274 275 276 277 277 277 275 274 275 276 276 277 278 279 280 281 281 280 279 278 278 278 278 279 280 280 281 283 284 285 286 286 286 286 286 286 286 285 285 285 284 284 283 282 282 281 280 279 278 278 277 277 277 277 276 276 275 274 274 273 273
262 263 264 265 266 266 265 266 266 267 267 267 267 268 269 270 271 272 272 272 272 272 272 273 273 275 276 275 274 274 273 273 274 275 275 276 277 276 275 275 275 275 274 274 274 274 275 276 277 278 279 281 282 283 284 285 285 285 285 285 285 285 284 284 283 283 282 281 281 280 279 278 278 277 277 277 276 276 275 275 274 274 273 273 272
263 263 263 264 264 264 265 265 266 266 266 267 267 269 270 271 271 271 271 271 271 271 272 271 271 271 271 272 272 272 271 271 272 272 272 272 271 271 271 270 271 270 271 271 272 272 272 273 273 275 277 278 280 281 281 282 283 284 284 284 284 283 283 282 282 281 281 280 279 279 278 277 277 277 276 276 275 275 275 274 274 273 273 272 271
263 263 263 264 264 265 265 266 266 266 267 268 269 269 270 270 270 270 270 270 269 269 269 269 269 269 268 269 269 268 268 268 268 268 268 268 268 268 267 268 268 268 268 269 269 269 269 270 271 272 273 274 275 275 275 277 279 280 282 283 282 281 282 281 280 280 280 279 278 277 277 277 276 276 275 275 275 274 274 273 273 272 272 271 270
262 262 263 263 264 264 265 266 266 267 268 268 269 269 269 268 268 268 268 267 267 267 267 267 266 266 266 266 266 266 266 266 266 266 265 265 265 265 265 265 266 266 266 266 266 266 267 267 267 268 268 269 270 270 271 272 274 275 278 279 280 280 280 280 280 280 279 279 278 277 276 276 275 275 275 275 274 274 273 273 272 271 271 270 270
263 263 263 264 264 265 265 266 267 266 266 266 266 266 266 266 266 266 265 265 265 265 265 264 264 264 264 263 264 264 264 264 263 264 263 263 263 263 263 264 264 264 264 264 264 264 264 265 265 265 265 266 267 268 269 269 271 271 273 274 276 277 278 277 278 278 278 278 277 276 276 275 275 274 273 274 274 274 273 273 272 272 271 270 270
263 264 264 264 264 264 264 264 264 264 264 263 264 263 263 263 263 263 263 263 263 263 262 262 262 261 262 262 262 262 262 262 262 262 261 261 262 262 262 262 263 263 263 263 263 263 263 263 263 263 263 264 264 265 266 267 268 269 270 271 273 274 275 275 276 276 277 277 276 276 275 274 274 273 273 273 273 272 272 272 271 271 271 270 269
263 263 263 263 263 263 263 263 262 263 262 262 262 262 262 262 261 261 260 261 260 260 260 260 260 260 261 261 262 262 261 261 261 261 261 261 260 261 261 261 261 261 262 262 262 262 262 262 262 263 263 263 264 264 265 265 266 267 268 270 270 271 270 271 274 274 274 275 275 275 275 274 273 273 272 272 272 272 271 271 271 270 270 269 269
262 262 262 262 262 262 261 261 261 261 261 261 261 260 261 260 260 260 260 259 259 259 259 258 258 259 259 260 261 261 261 261 260 260 260 260 260 260 261 261 261 261 261 260 261 261 262 262 262 263 263 264 264 264 265 265 266 267 268 269 269 269 269 269 270 271 271 273 273 273 273 273 272 272 271 271 271 271 271 270 270 269 269 269 268
261 261 261 261 261 261 261 261 261 260 260 261 260 260 260 260 260 260 260 259 259 259 259 259 259 259 258 259 260 260 260 260 260 260 260 260 260 260 260 260 260 260 260 260 260 261 261 262 262 263 263 264 264 265 265 265 266 266 267 268 268 268 268 268 269 269 270 271 271 271 271 271 270 270 270 270 270 269 269 269 268 268 268 268 267
260 260 260 260 260 260 260 260 260 260 259 259 259 259 259 258 258 258 258 258 258 258 258 258 258 258 258 259 259 259 260 260 260 260 259 260 260 260 260 260 260 260 260 260 260 260 261 261 262 263 263 264 264 264 265 265 266 266 267 267 267 267 267 267 267 267 268 268 269 270 269 269 269 268 268 268 268 268 267 267 267 267 267 267 267
Wind_Speed
4 5 4 5 4 5 6 6 7 5 6 6 7 8 8 8 8 8 7 9 8 9 9 10 10 10 10 10 11 11 11 12 11 11 12 13 13 14 13 13 15 15 13 15 14 14 15 16 15 15 13 14 12 11 12 12 12 12 11 11 12 11 12 13 17 19 11 4 4 5 5 6 5 8 9 8 8 8 9 9 9 9 9 9 9
4 5 4 4 4 5 6 6 5 5 6 7 7 8 8 7 7 7 7 9 7 9 10 10 9 9 10 11 11 11 11 12 11 11 12 13 14 12 13 14 15 15 13 15 14 13 14 14 15 13 12 14 14 13 12 12 12 12 11 11 12 12 11 13 15 14 19 4 5 3 3 7 8 5 10 10 11 10 11 11 9 9 9 9 8
4 4 4 4 5 5 5 6 5 5 6 7 7 8 8 7 6 8 9 9 7 8 9 9 9 9 10 10 10 11 11 11 10 11 12 13 14 13 13 13 15 15 15 16 15 13 14 14 14 12 11 13 14 13 12 13 12 13 13 11 12 12 12 14 13 16 17 15 8 8 7 7 10 10 10 9 7 6 8 9 9 7 6 7 8
4 4 4 4 4 4 5 5 6 6 5 6 7 7 7 7 6 7 8 8 9 8 7 8 9 9 9 10 10 10 10 10 10 10 12 13 13 14 13 13 13 14 15 15 14 13 14 14 14 12 12 13 13 12 12 12 12 12 13 11 11 12 11 11 14 14 13 14 5 8 5 6 6 4 3 4 5 4 6 5 3 6 7 7 7
4 4 4 5 6 6 7 6 5 6 7 6 7 7 6 7 6 7 7 8 8 8 8 6 8 8 10 10 10 10 11 11 11 11 11 11 12 13 12 12 13 14 14 14 13 13 13 14 15 13 13 14 14 13 11 12 12 11 12 11 11 10 9 9 11 11 13 14 10 7 8 9 7 6 8 9 8 6 4 6 6 6 6 6 6
5 5 5 6 7 7 7 7 7 7 7 7 7 7 7 6 7 6 6 8 8 8 8 7 7 9 9 10 10 11 10 10 10 11 11 11 11 11 11 11 12 13 13 13 13 12 13 14 14 13 13 14 14 12 12 13 11 12 13 12 11 10 11 11 10 11 12 15 14 14 5 8 4 5 5 6 6 8 5 5 2 4 6 7 7
5 5 6 5 6 7 7 7 8 8 8 8 8 7 7 7 7 7 6 6 7 8 8 8 7 7 9 8 10 10 10 9 10 10 11 10 10 11 11 11 12 11 12 13 12 13 13 14 14 13 14 14 14 14 12 12 12 13 13 12 12 12 13 12 11 12 13 14 14 12 10 5 5 9 4 4 3 2 6 4 5 6 6 7 7
5 5 5 6 5 7 6 7 7 8 7 7 7 7 7 7 7 7 6 7 7 7 8 9 8 6 8 7 9 8 8 8 8 9 9 9 9 10 10 11 12 12 12 12 12 12 13 14 14 14 14 15 14 13 12 12 9 10 9 9 10 11 12 10 10 11 12 12 13 12 9 7 2 2 4 2 2 4 3 6 10 9 9 7 8
5 5 5 5 5 5 6 5 6 6 7 7 8 8 8 8 7 7 6 7 6 6 7 7 8 8 7 7 7 7 8 9 7 8 9 10 9 11 12 12 12 12 13 13 13 13 13 14 14 14 14 17 19 18 17 17 14 13 11 9 11 11 12 12 13 13 13 13 13 9 8 6 6 7 5 5 9 12 9 9 9 9 4 4 5
4 5 5 6 5 5 5 5 6 6 7 7 8 8 8 8 9 8 8 7 7 6 6 6 7 8 9 8 7 7 7 7 9 14 13 10 10 10 11 11 11 12 13 13 13 13 14 13 13 17 18 18 19 20 19 17 17 16 15 12 14 13 13 12 11 10 9 11 12 12 12 12 10 10 10 9 9 3 3 7 9 8 2 4 3
4 3 4 4 5 5 6 7 6 7 6 6 7 8 9 8 8 8 8 8 8 7 6 7 7 6 7 8 8 7 7 8 12 13 13 15 12 11 12 12 12 12 13 13 14 13 12 12 12 14 15 17 17 20 18 18 19 21 23 21 16 12 10 10 11 10 11 12 12 11 12 13 10 9 10 9 7 9 10 7 10 5 7 8 10
4 4 4 4 5 6 6 7 8 8 7 7 7 7 7 8 8 8 8 9 8 7 7 7 7 6 6 6 7 7 7 9 13 14 13 12 10 8 9 10 11 11 12 12 11 11 11 11 11 10 10 11 11 12 15 19 21 21 22 22 23 25 23 18 14 11 10 11 13 13 12 14 12 8 9 7 9 7 8 6 7 9 8 8 7
4 4 4 5 6 6 7 8 8 8 8 8 8 8 7 8 7 8 9 8 7 8 8 8 7 7 6 8 8 6 6 9 13 14 13 14 14 11 9 9 9 10 10 10 9 8 6 7 9 9 10 14 12 11 9 10 15 21 22 22 21 20 19 22 21 16 12 13 15 15 14 12 12 10 10 12 9 10 7 8 8 9 10 9 11
3 4 4 5 5 5 6 7 8 9 9 9 9 9 8 9 8 6 7 7 7 8 7 8 8 7 7 8 8 7 7 9 12 13 13 13 14 13 10 11 11 12 12 11 11 12 13 14 13 12 10 9 10 12 12 13 12 10 12 12 13 17 21 24 24 22 18 14 15 17 14 9 15 12 12 10 9 11 10 12 10 9 11 14 5
4 4 5 5 5 6 7 7 8 8 9 9 9 9 8 8 9 8 7 8 8 9 9 9 8 7 8 7 8 8 7 12 13 13 12 12 13 12 9 10 10 12 12 11 12 12 12 11 11 12 9 7 9 10 10 11 10 11 12 12 12 12 12 13 12 13 15 16 17 18 15 11 13 11 8 10 13 14 15 15 14 12 3 5 6
3 4 4 5 5 5 5 6 7 7 8 9 9 10 9 8 9 9 8 8 6 6 7 5 8 8 7 7 8 9 8 11 13 12 12 11 13 9 8 9 10 10 10 11 11 12 12 11 10 11 12 13 14 14 13 11 10 13 13 14 13 12 12 13 13 15 15 16 15 16 15 13 13 10 9 10 10 7 3 4 6 6 7 6 6
4 4 4 4 4 5 4 5 6 6 7 8 9 10 10 12 10 6 9 9 9 9 8 7 6 7 8 7 8 9 8 9 12 12 12 13 11 8 8 8 9 10 10 9 9 10 10 10 10 11 11 11 10 9 11 12 11 14 15 14 13 11 14 9 10 17 19 19 20 20 20 17 15 15 13 15 12 9 6 5 6 8 8 8 7
4 5 5 5 5 5 4 4 5 5 5 6 8 8 9 7 7 6 8 11 11 10 9 10 7 5 7 8 7 9 9 9 12 14 15 14 12 9 8 8 10 9 10 9 8 9 10 13 12 12 12 11 11 12 13 10 10 12 11 11 12 13 13 7 5 12 13 15 16 17 16 15 14 14 13 14 15 13 11 13 10 10 11 11 10
5 6 7 6 6 5 5 4 5 5 5 6 6 8 8 9 9 7 8 8 9 9 8 9 9 5 5 7 8 9 9 9 11 13 14 14 11 7 7 7 10 9 9 10 7 8 9 7 11 10 10 12 17 16 15 11 10 12 11 10 14 16 15 5 9 9 7 8 10 10 11 13 12 10 10 16 18 16 13 13 7 11 12 10 7
4 5 5 6 6 6 5 6 5 6 7 7 6 6 7 7 8 9 8 7 9 9 8 8 10 9 5 5 6 7 8 8 8 13 13 14 14 9 7 7 9 10 9 9 10 8 7 8 7 11 14 17 17 16 15 15 12 11 10 11 14 18 7 3 9 8 10 11 10 9 10 5 4 4 4 6 10 11 13 10 10 12 11 10 10
4 5 5 6 7 6 6 6 8 7 6 7 7 6 6 7 7 8 9 8 8 9 9 9 9 10 6 5 6 6 7 8 8 11 12 13 14 12 6 8 8 9 9 9 8 10 8 7 7 8 13 15 15 16 16 16 16 13 12 12 12 11 8 6 9 10 9 8 8 7 5 3 4 4 5 6 8 9 9 7 7 11 11 10 10
4 5 6 6 7 7 7 7 6 7 7 7 8 8 6 6 6 7 7 8 10 10 9 9 9 10 8 5 5 6 7 9 7 9 12 13 13 14 9 7 8 9 10 9 8 8 8 8 7 8 12 14 14 15 17 17 18 13 13 16 18 18 13 10 7 5 6 6 6 6 5 4 5 5 6 7 7 8 10 10 8 7 7 5 11
5 6 6 7 6 6 6 7 8 7 8 8 9 10 8 7 6 5 7 8 9 10 10 9 9 10 10 7 5 6 5 7 9 8 10 13 13 13 13 11 12 9 9 10 9 9 8 8 8 11 14 14 15 16 16 18 16 13 17 18 18 19 16 9 6 6 6 6 6 7 7 6 6 7 8 8 7 7 7 6 5 6 5 1 2
5 6 6 6 6 6 5 6 7 7 9 10 10 10 10 9 8 6 6 6 8 10 8 7 8 9 10 11 6 4 5 6 7 9 10 12 12 13 13 13 13 9 9 9 9 9 9 9 10 14 15 16 17 18 17 17 13 17 18 18 17 15 10 7 5 5 5 6 8 7 7 7 6 6 7 5 4 4 3 3 2 2 4 5 4
6 6 6 6 6 6 6 6 6 6 7 8 10 11 11 9 10 8 7 8 8 9 10 7 7 9 10 10 10 7 5 5 6 7 11 12 12 12 13 13 13 14 11 8 8 9 11 16 17 17 16 17 18 18 16 16 18 18 18 17 16 8 7 5 6 6 8 10 9 8 8 7 7 6 3 5 7 7 7 7 7 7 6 7 8
7 7 7 7 7 7 7 7 5 6 7 7 7 8 9 10 9 9 7 8 8 9 10 8 8 8 9 10 10 9 6 5 6 6 6 7 7 9 12 13 14 15 15 13 16 18 18 18 19 17 15 13 11 9 8 9 13 16 15 13 8 7 6 6 6 7 9 8 7 7 6 3 4 3 6 9 9 7 6 5 5 4 5 5 6
7 7 7 7 6 6 8 8 9 8 7 8 8 8 8 8 8 9 8 8 9 9 9 9 8 7 9 10 10 10 8 6 5 5 5 4 5 6 8 8 11 12 10 9 10 10 12 12 10 12 12 15 15 15 14 13 10 9 7 6 6 6 6 7 8 9 9 7 6 6 4 2 4 7 6 8 8 5 6 9 7 8 7 6 7
7 7 7 7 6 7 7 10 10 9 9 8 9 9 8 7 9 9 8 8 9 11 9 9 8 9 10 10 11 11 10 6 5 5 5 7 9 8 7 8 7 7 9 9 9 10 10 11 11 8 8 7 7 6 6 6 6 6 6 5 6 5 7 8 7 5 5 4 4 2 3 5 7 7 6 7 7 6 7 10 9 8 8 10 7
6 6 6 6 7 7 7 8 8 9 9 9 8 8 9 9 9 10 7 7 7 9 11 11 9 8 9 10 11 13 12 8 5 7 11 13 12 11 10 9 9 9 10 14 13 11 9 9 8 7 6 7 6 6 6 5 5 6 6 5 5 5 4 4 7 7 6 5 6 6 5 5 5 5 5 6 6 9 5 6 6 11 7 8 11
6 6 6 7 8 8 8 8 7 8 8 9 10 10 9 12 12 10 11 9 13 15 12 12 11 10 12 10 7 11 13 13 15 18 17 16 16 16 16 17 16 15 16 19 14 12 10 9 9 8 8 7 7 6 6 5 5 5 5 5 5 5 5 6 6 6 5 6 5 5 6 6 6 6 6 7 5 6 5 3 5 4 7 6 6
8 7 7 7 8 9 9 9 8 8 7 8 9 12 14 9 10 16 16 16 15 15 16 16 16 15 12 14 12 14 19 21 20 18 18 17 18 18 19 18 18 17 17 14 12 9 10 10 10 8 8 8 8 7 6 6 6 6 5 5 5 6 6 5 6 5 5 6 6 7 6 8 8 8 8 8 9 8 6 5 5 7 8 9 9
8 8 8 8 9 9 8 9 9 8 8 7 8 10 11 15 14 7 11 15 13 15 16 16 17 16 17 16 14 12 12 15 18 19 19 19 18 20 21 20 19 18 17 15 13 13 9 10 11 9 8 9 9 7 7 6 6 6 6 5 6 6 7 7 7 7 7 7 7 6 7 7 7 7 7 7 6 8 8 8 9 9 7 7 8
8 8 8 8 9 10 9 9 9 9 9 9 9 8 10 11 14 16 8 7 13 16 15 15 15 15 14 15 17 16 18 18 20 20 20 20 20 20 20 21 20 18 16 11 9 11 10 9 11 10 9 10 9 8 8 7 7 7 6 7 7 6 7 9 8 7 7 7 6 7 6 6 6 5 5 5 6 7 6 7 7 6 6 7 6
7 7 8 9 9 8 7 8 9 9 9 10 10 10 10 10 12 13 16 17 10 8 9 11 12 14 14 16 17 18 18 19 19 20 21 21 21 20 19 16 18 18 14 11 10 10 10 10 10 10 10 9 9 8 8 7 7 7 7 7 7 6 7 6 6 7 7 7 7 7 6 6 6 7 7 7 7 7 8 8 8 8 8 8 8
7 9 14 13 9 8 8 7 8 8 9 9 10 11 11 11 11 12 12 13 16 16 11 8 8 9 13 14 15 17 18 20 21 20 21 20 20 20 20 14 11 8 6 7 9 9 10 10 10 10 9 10 9 9 9 8 8 7 8 8 7 7 7 6 7 7 8 7 7 7 7 8 8 7 8 8 9 9 9 10 10 9 9 8 10
9 9 9 11 10 8 8 9 9 8 9 8 10 10 10 10 11 11 11 12 12 14 13 9 8 9 13 14 17 20 21 19 19 21 21 22 21 20 13 11 10 10 10 9 8 10 9 10 9 10 9 9 9 9 9 9 8 8 8 8 8 8 8 7 7 8 8 8 8 8 7 7 7 7 7 7 10 10 10 10 10 9 9 9 10
9 9 9 9 9 9 10 10 10 11 12 12 11 10 11 10 10 10 10 10 11 11 11 11 10 9 7 7 11 15 16 18 20 21 21 20 20 14 10 11 10 10 9 9 9 9 10 9 9 10 9 9 9 9 9 9 9 9 8 9 8 9 8 8 8 7 8 8 8 8 8 8 8 9 9 10 9 9 9 9 9 10 10 11 11
8 9 9 9 10 11 11 10 11 15 12 10 9 10 10 10 10 10 10 11 12 11 10 11 11 11 12 9 8 8 13 16 18 16 14 13 10 8 8 9 9 10 10 9 8 9 10 10 9 10 10 10 10 9 9 9 9 9 9 9 9 9 10 10 9 9 9 8 8 8 8 8 8 8 9 10 10 10 10 10 10 10 10 12 11
8 12 16 18 14 11 10 10 10 9 9 9 9 10 11 10 10 9 9 9 9 10 10 9 8 8 9 9 11 13 14 11 9 8 8 8 8 8 9 10 9 10 10 9 9 9 9 9 9 9 10 10 10 10 9 9 9 9 9 9 9 8 8 8 8 8 8 8 8 7 8 7 7 8 9 9 9 10 10 11 11 11 12 13 12
9 8 10 15 11 11 10 10 10 10 10 10 9 9 10 9 9 9 10 10 10 9 8 9 9 9 10 11 11 10 11 11 9 9 10 9 9 8 9 9 10 9 10 10 9 9 10 10 11 11 11 10 10 10 10 10 10 9 9 9 9 9 9 8 8 8 8 8 8 7 8 8 8 8 8 8 8 9 10 11 11 11 11 11 11
8 8 9 10 11 10 9 10 9 9 9 9 9 9 10 11 10 10 9 9 9 10 9 9 9 9 9 12 17 18 12 12 11 11 11 11 10 9 8 8 8 9 10 10 10 10 10 11 10 10 11 11 11 11 11 10 10 10 9 9 9 9 9 8 8 8 8 8 8 7 7 7 8 8 9 8 8 8 8 9 9 10 10 11 12
7 8 9 8 9 9 9 10 9 10 9 10 10 9 9 10 9 8 10 10 10 10 9 9 8 7 10 19 19 20 13 10 10 10 9 9 9 9 9 9 10 9 9 9 9 10 10 10 10 9 10 11 11 10 10 10 10 10 10 9 9 9 9 8 7 8 8 7 7 8 7 8 8 8 8 8 9 9 9 9 10 10 11 11 11
8 8 8 9 8 8 9 8 9 8 9 9 8 9 10 10 8 8 9 9 9 9 8 8 8 10 11 14 15 17 10 9 9 10 9 9 9 8 8 8 8 8 8 8 8 8 10 10 10 10 9 11 11 11 11 11 11 10 10 10 9 9 9 8 6 7 6 6 7 7 8 7 8 7 8 8 9 9 10 11 10 11 11 12 12
8 8 8 8 8 8 8 8 8 8 8 10 11 10 9 8 8 8 8 8 8 8 8 8 8 9 9 10 10 9 8 8 8 7 8 8 8 7 8 8 8 8 8 7 7 8 8 9 9 10 9 9 9 9 9 9 9 10 10 9 9 8 8 7 6 6 7 7 6 7 7 7 8 8 8 9 10 10 10 11 11 11 11 11 12
7 7 7 7 7 7 8 8 8 9 10 8 6 7 8 7 7 7 7 7 8 8 8 8 8 9 9 9 8 8 8 8 9 8 7 7 7 7 7 8 8 7 7 7 7 8 7 8 8 8 9 8 8 8 8 8 8 7 8 8 8 7 7 7 6 5 5 6 6 7 7 8 8 8 9 9 10 11 11 12 12 12 12 12 13
6 6 7 7 8 8 7 6 7 6 7 6 7 6 6 6 6 7 7 7 8 8 8 8 8 9 8 9 9 9 8 8 7 7 8 7 7 6 7 7 7 7 6 7 7 7 7 7 7 7 8 8 9 8 8 8 8 8 7 7 7 7 5 3 2 3 5 6 7 7 7 7 8 8 9 10 9 9 10 11 11 12 13 14 13
6 6 6 6 6 7 7 7 6 6 6 6 6 6 6 6 6 6 7 8 7 7 6 7 7 7 7 7 8 8 8 8 7 7 7 7 7 7 6 7 6 6 6 6 6 6 6 6 6 7 7 7 7 8 7 7 7 7 7 6 7 7 5 2 1 2 3 4 5 6 7 7 8 7 8 9 8 9 10 11 12 13 12 12 12
5 5 6 6 6 6 6 6 6 7 6 6 6 6 6 6 6 6 6 6 6 6 6 6 6 6 7 7 6 6 6 6 6 7 7 7 7 7 7 7 7 7 7 7 6 6 6 6 5 5 5 6 7 6 6 6 6 6 6 6 7 7 8 7 4 3 2 2 3 5 6 7 7 7 8 9 9 9 10 9 9 9 10 11 10
5 4 4 5 5 6 6 6 7 6 6 6 6 6 6 6 5 5 5 5 5 6 6 6 6 6 6 6 6 6 6 6 5 5 5 6 6 6 7 7 7 7 7 8 8 8 7 7 8 7 6 6 6 7 7 8 8 8 9 8 11 16 14 13 8 6 6 5 4 4 4 4 6 6 7 7 7 7 8 8 9 9 9 9 10
5 5 4 4 5 5 5 5 5 5 6 6 6 6 6 6 6 6 6 6 6 6 6 6 6 6 6 7 8 7 7 7 7 7 7 6 6 6 6 6 6 6 6 7 8 8 8 9 9 9 8 8 8 8 7 7 7 8 8 10 16 17 15 15 15 13 8 5 6 5 5 6 6 6 6 6 7 8 8 8 8 8 9 10 10
6 6 5 5 4 4 4 4 5 5 5 5 5 5 6 6 5 6 6 6 6 6 7 7 7 7 7 7 7 7 7 7 7 7 7 7 8 8 7 7 7 7 7 7 7 7 8 8 8 9 9 9 9 9 8 8 8 9 12 15 16 16 17 14 10 12 13 9 6 6 6 7 7 7 7 7 7 7 7 8 8 8 7 8 9
Wind_Direction
272 259 272 274 273 281 284 292 290 291 291 283 277 276 275 270 268 264 270 259 254 251 246 246 244 241 239 236 234 234 232 232 226 227 227 230 230 232 233 229 235 237 237 239 235 237 237 240 240 238 237 239 239 236 235 234 232 232 231 233 236 229 229 238 250 264 257 190 201 208 215 207 229 210 225 221 229 226 226 232 227 220 220 221 223
247 258 255 255 264 271 278 285 295 309 304 300 292 288 288 288 283 286 268 266 256 255 249 250 247 246 244 243 240 239 239 237 233 228 230 230 233 230 232 231 235 237 235 240 236 236 240 242 244 241 237 240 243 238 236 235 233 235 232 226 232 231 217 231 246 253 267 220 256 195 226 190 229 194 213 216 225 212 210 215 216 213 216 216 220
272 263 263 261 266 269 286 294 318 316 315 307 305 300 299 297 297 290 284 280 273 259 260 256 254 250 250 248 247 246 243 242 239 233 234 232 234 233 230 230 233 236 236 239 239 237 240 240 243 240 237 240 241 239 237 237 235 236 237 227 232 229 220 221 234 248 255 258 220 230 205 201 204 212 212 223 236 211 222 224 219 219 221 213 220
293 285 276 280 283 301 297 311 324 317 315 305 302 301 300 299 300 294 287 286 283 277 265 265 262 257 255 255 250 251 250 246 243 237 237 235 237 237 235 234 235 236 238 240 239 238 239 243 243 238 239 241 242 238 237 235 236 236 238 234 233 233 225 223 228 241 254 264 220 220 211 213 242 253 202 214 221 237 243 264 228 216 216 217 220
325 320 327 318 314 315 310 319 319 315 312 310 303 302 301 300 298 292 294 290 285 283 278 262 263 261 259 256 254 251 249 247 247 244 240 240 241 241 240 238 238 239 240 241 239 237 239 239 243 236 236 239 241 238 239 234 235 234 237 233 232 234 233 231 235 237 247 252 253 218 202 210 210 201 192 198 215 210 200 215 223 229 228 221 223
347 346 341 338 321 323 321 327 325 320 314 311 307 307 306 303 303 299 289 291 294 287 285 283 267 267 261 261 258 257 255 251 249 249 246 242 242 244 244 242 243 243 244 243 241 239 241 243 243 239 238 239 243 240 238 238 235 233 231 227 225 226 231 231 229 234 240 250 254 259 195 213 231 236 216 232 202 209 229 235 229 236 228 237 232
343 356 343 340 332 328 328 326 323 321 319 315 313 312 309 305 303 301 301 294 294 295 291 284 277 269 271 269 267 264 262 257 254 252 251 249 246 245 244 245 246 245 245 245 243 241 242 243 244 239 239 241 244 243 237 234 227 229 229 229 227 225 232 232 234 241 245 252 255 253 254 240 226 226 211 179 234 254 234 214 256 232 227 221 239
356 358 358 347 343 330 328 323 325 320 318 316 314 310 308 309 305 301 305 303 298 292 293 293 291 282 279 274 273 275 272 269 263 260 258 255 252 249 245 246 247 246 246 245 243 243 242 243 243 240 237 237 236 240 236 243 238 246 240 237 238 234 239 239 243 245 248 252 252 250 237 214 245 357 32 93 186 273 223 208 230 230 222 214 223
5 2 355 357 339 328 323 326 322 324 323 324 323 321 318 312 310 308 306 301 295 292 292 297 301 298 290 283 283 276 273 271 266 262 261 261 253 254 251 248 246 248 249 248 245 244 243 242 242 241 237 240 238 238 234 227 227 237 239 232 240 234 239 235 236 234 239 244 252 252 252 221 207 187 188 190 202 216 204 194 237 251 217 196 236
12 3 0 346 336 333 329 324 328 325 329 329 323 318 317 317 317 316 313 307 302 300 306 303 295 293 298 296 290 288 283 280 273 270 265 263 263 260 259 254 251 251 252 252 250 245 245 246 245 242 240 238 236 235 236 234 231 233 243 227 229 232 235 237 233 230 234 242 243 237 236 238 212 198 204 207 217 215 115 183 221 231 130 238 274
10 16 357 339 332 335 339 337 333 332 325 320 318 321 321 319 317 313 312 312 311 312 312 305 299 295 294 296 299 293 290 291 294 288 283 273 267 268 263 259 253 252 251 249 249 247 245 245 248 244 237 237 238 238 239 237 235 237 244 247 244 237 240 237 239 230 232 239 246 240 241 245 230 200 207 207 200 206 214 195 216 194 205 208 235
19 2 351 341 343 345 342 336 336 331 330 325 321 317 314 315 315 314 314 317 315 315 307 295 296 294 294 294 293 294 295 296 295 297 303 307 303 292 285 281 276 260 252 249 250 250 249 248 244 240 238 238 241 241 238 240 245 250 248 243 240 234 226 223 228 229 226 236 243 237 234 235 236 191 201 196 213 205 218 205 205 207 210 216 228
15 1 348 346 345 345 342 341 333 330 330 326 321 320 317 313 315 320 318 311 310 311 304 305 298 295 291 290 287 284 286 293 299 302 306 308 309 309 291 284 280 278 275 269 262 261 264 266 268 257 253 243 239 245 246 242 235 237 242 245 247 250 254 251 242 235 224 229 240 243 228 228 234 220 193 203 191 205 199 208 209 209 212 216 226
25 358 346 346 344 341 340 338 333 328 327 326 326 323 321 318 312 303 302 309 308 305 303 299 297 295 290 289 288 289 283 277 283 289 293 297 301 303 292 289 281 275 275 275 277 275 268 262 262 261 251 243 239 238 242 246 250 245 246 246 246 244 240 239 241 243 245 242 241 242 239 200 228 220 205 186 169 203 198 218 208 208 208 220 229
12 359 350 339 345 346 345 341 332 328 327 325 323 319 316 315 316 315 314 310 310 308 308 308 301 295 293 289 289 290 284 283 282 283 286 291 294 291 285 283 281 277 276 273 272 271 270 266 258 257 259 249 249 244 238 242 249 255 254 249 245 245 241 240 237 235 234 235 241 244 246 225 231 227 193 188 198 207 203 211 202 201 168 63 61
7 355 346 339 341 338 338 332 328 327 327 327 326 323 322 319 317 319 316 309 295 289 289 278 290 297 293 294 293 289 288 284 287 292 294 296 296 292 286 283 279 277 277 278 277 275 276 277 281 279 275 268 249 229 228 239 245 248 249 252 255 254 253 248 242 239 235 236 237 240 241 229 221 217 203 191 203 203 124 69 95 125 157 173 179
5 354 338 334 328 325 324 319 319 319 321 323 321 320 322 322 320 318 314 309 310 309 302 296 290 291 293 292 291 290 293 295 296 298 301 298 298 288 287 284 281 281 277 275 274 278 280 282 280 280 279 276 275 271 262 254 255 254 253 255 256 254 255 246 231 242 244 245 248 247 246 241 230 227 214 196 194 173 140 137 182 161 164 190 201
351 344 334 329 322 316 311 308 307 309 310 311 310 307 307 299 297 309 309 310 310 305 306 303 292 281 287 289 287 293 294 297 296 296 295 292 288 288 285 284 281 280 284 278 276 274 273 276 277 282 284 285 298 289 263 234 242 253 258 259 262 259 258 242 245 253 250 251 251 253 254 252 243 236 225 202 189 162 168 201 193 164 195 199 196
346 338 328 320 317 310 303 299 297 299 300 297 296 299 301 302 302 303 293 290 286 293 298 297 296 284 266 273 279 279 284 288 287 287 288 291 291 286 284 284 286 285 286 286 278 275 281 275 269 268 271 280 281 279 276 260 250 252 250 255 260 261 258 218 236 252 255 248 251 244 247 240 236 226 215 201 188 185 194 207 159 179 195 200 167
316 313 314 316 314 313 307 303 297 295 298 293 287 283 287 296 298 300 298 290 294 297 294 291 294 295 285 276 274 268 277 280 278 277 280 283 283 282 280 282 283 286 285 287 294 284 275 275 266 261 265 267 267 267 266 261 255 260 256 251 255 260 272 228 238 232 242 238 244 237 242 244 233 231 216 204 200 195 202 198 183 188 196 191 182
317 313 318 319 319 317 312 308 307 301 288 289 287 286 286 287 295 299 300 303 298 298 298 298 297 295 293 276 273 270 263 273 276 275 278 279 279 280 278 273 277 283 286 286 283 290 291 279 277 260 260 262 263 266 266 262 256 253 253 252 254 270 281 254 254 232 239 246 247 248 245 218 213 207 203 195 198 203 209 208 197 197 193 188 187
314 316 318 317 315 316 315 311 303 301 302 301 301 293 280 275 279 289 295 299 303 300 301 300 299 298 300 289 274 274 269 262 273 277 279 280 278 276 276 270 270 285 287 285 286 287 287 293 293 284 278 274 273 269 267 264 261 257 255 255 260 262 261 254 249 233 232 245 243 239 228 210 214 212 210 208 204 199 202 200 195 208 227 219 192
321 319 318 313 312 311 312 315 317 316 311 308 305 304 302 297 291 286 291 297 297 299 302 304 305 305 304 297 279 281 280 278 273 277 282 285 284 282 276 276 280 281 286 292 293 291 295 294 296 297 293 292 290 285 281 277 275 267 266 263 259 258 256 254 241 227 227 230 230 234 223 211 209 213 208 215 206 196 198 196 186 176 154 63 359
317 316 314 310 308 309 310 314 314 315 315 316 313 307 309 307 301 297 294 296 302 302 299 298 299 301 306 308 302 284 287 283 285 282 283 284 285 286 287 286 286 281 279 282 287 286 294 292 289 289 291 292 289 287 283 278 273 273 272 270 267 263 257 255 240 233 236 236 230 231 229 220 212 212 217 203 186 176 146 110 87 100 109 78 45
319 315 309 305 305 306 311 313 317 315 315 317 315 316 314 318 315 317 315 307 302 297 296 299 297 300 301 300 304 305 290 287 289 291 288 289 288 289 292 293 293 292 291 283 278 282 280 285 290 292 291 290 288 287 283 276 273 272 270 267 266 263 257 238 234 213 227 231 227 224 227 219 211 212 157 125 106 89 104 77 79 72 63 76 65
323 318 314 313 312 312 316 314 312 315 315 313 305 300 302 307 306 305 306 298 296 294 296 301 299 298 295 296 299 302 304 290 286 283 283 289 295 297 294 293 291 287 281 282 282 283 284 284 284 285 286 285 287 286 282 276 269 270 272 271 263 252 231 225 223 226 232 238 239 239 237 213 196 154 125 121 133 162 139 123 116 109 125 122 98
314 315 315 316 317 321 323 325 324 325 321 316 309 305 304 299 296 296 296 296 293 290 290 294 296 295 294 298 301 303 303 297 283 284 287 293 298 296 295 290 284 283 284 283 284 282 280 278 278 277 277 279 279 278 279 281 280 274 268 259 252 244 235 220 219 221 231 234 238 242 231 163 107 122 162 169 172 164 168 159 151 159 148 145 116
318 319 320 318 319 321 319 322 323 317 319 317 311 307 299 295 295 293 300 299 300 298 299 297 300 303 302 303 306 304 302 302 294 297 313 317 312 307 301 300 300 299 296 294 291 289 288 286 281 274 273 274 272 268 264 266 266 273 268 264 257 251 248 245 247 241 235 221 218 176 138 157 171 180 172 187 191 173 173 162 168 157 160 131 126
328 325 324 326 321 322 318 314 313 312 310 310 297 291 299 299 290 285 262 257 263 278 296 290 292 292 290 295 304 300 297 301 304 316 307 303 303 309 312 310 308 300 293 295 297 292 285 284 277 278 268 272 274 266 263 256 256 253 261 262 258 251 243 224 233 235 231 213 213 193 188 167 185 170 178 190 190 187 183 156 103 135 160 170 132
335 326 325 322 317 317 314 311 309 307 308 309 311 303 275 273 281 280 290 269 263 267 262 278 287 296 295 285 273 284 295 300 305 303 301 300 297 293 292 293 295 296 298 298 294 294 289 285 279 278 279 274 275 271 264 252 255 253 241 243 246 246 237 235 236 241 221 218 217 196 186 178 182 182 181 189 175 179 180 165 158 148 148 164 136
327 322 322 319 317 313 310 309 309 305 304 308 311 310 311 292 264 279 277 278 279 274 276 276 282 283 280 292 289 273 280 289 295 297 297 297 298 298 297 294 295 297 299 303 294 286 292 286 283 277 274 272 270 271 265 261 254 252 248 233 229 232 238 238 240 239 234 220 213 206 196 191 190 185 189 186 184 175 163 166 153 167 168 146 143
321 318 317 312 311 309 307 307 309 307 307 307 306 308 307 309 306 250 277 296 291 292 291 288 286 285 283 281 289 298 292 293 295 296 297 297 297 295 294 293 291 292 295 295 288 288 284 284 285 281 280 277 274 271 264 261 259 250 252 242 236 221 227 233 230 225 227 223 219 213 204 203 203 196 195 184 174 177 174 171 174 172 162 158 163
314 313 312 310 309 311 312 309 309 309 308 308 305 302 302 305 306 312 294 249 283 293 289 286 285 286 289 291 291 288 292 295 296 297 297 295 294 293 292 290 289 288 293 290 276 286 285 278 279 283 281 278 279 275 270 259 257 255 241 245 247 232 223 230 227 230 227 227 222 221 211 206 200 187 186 172 170 170 172 179 179 167 153 148 144
300 301 309 309 307 303 303 301 298 297 294 295 296 298 295 292 296 296 304 314 301 273 266 284 294 296 295 295 295 296 298 300 300 297 295 294 294 293 292 290 289 289 282 281 283 278 283 281 278 277 279 275 276 276 271 264 256 253 251 243 245 242 237 221 218 225 226 224 223 220 209 204 192 185 182 176 175 166 175 180 178 174 171 169 155
296 298 304 307 303 301 300 297 295 293 295 294 292 291 287 290 287 291 299 300 304 309 315 311 298 300 306 304 298 298 305 306 303 302 300 298 294 292 293 293 296 291 272 262 270 276 280 279 280 281 279 279 277 273 270 266 259 254 250 250 246 242 238 223 222 222 223 224 220 217 209 203 196 190 183 178 174 176 181 180 185 181 172 161 161
323 316 313 308 302 296 297 298 298 293 290 286 287 283 287 288 287 288 286 287 292 299 299 298 301 303 299 300 307 305 299 302 305 305 304 302 300 297 292 289 286 285 286 283 278 279 277 277 279 278 276 273 274 270 266 265 259 254 251 248 249 240 238 230 224 221 221 220 220 213 206 200 191 186 182 183 186 185 180 181 178 176 169 166 164
309 306 303 303 304 301 298 293 290 290 288 288 284 284 283 282 286 287 284 283 290 291 293 302 308 298 289 281 288 288 297 302 304 308 307 303 296 291 280 284 284 287 283 285 284 283 283 283 283 284 282 277 273 271 270 266 264 260 256 250 248 246 239 234 226 219 219 219 216 208 204 200 189 188 182 188 186 183 178 174 173 170 169 163 158
305 302 304 305 303 299 296 291 290 291 289 284 280 281 281 281 283 286 291 293 291 293 300 304 303 301 309 310 309 316 321 316 309 300 297 303 307 299 288 280 281 284 288 287 282 283 284 286 286 285 287 283 281 278 273 270 266 264 261 257 250 247 242 237 232 223 221 218 214 207 202 200 191 188 186 189 185 180 177 172 168 165 160 162 164
305 303 301 302 298 295 291 292 290 290 286 288 287 288 290 292 291 289 289 289 290 291 290 292 297 302 309 325 324 319 312 304 307 301 300 295 294 295 295 296 297 298 298 298 296 290 286 288 288 286 284 285 285 282 280 277 273 268 263 261 257 253 244 237 231 222 218 217 214 205 199 197 188 189 188 188 183 179 175 170 168 165 164 168 172
307 304 301 298 294 292 292 291 291 288 289 291 291 291 294 294 292 293 292 291 291 296 300 305 309 311 313 312 308 311 308 309 310 314 314 312 308 311 315 310 304 296 299 305 315 321 319 316 316 312 306 299 294 288 284 281 278 273 268 262 261 256 245 236 231 223 218 216 212 203 195 192 185 182 185 188 183 174 172 171 171 168 164 160 155
300 299 298 297 293 294 293 293 293 290 293 294 296 297 292 289 289 290 290 294 301 304 301 298 297 301 297 303 318 328 323 315 313 311 309 309 307 300 298 307 321 326 327 324 320 316 312 308 304 300 297 295 294 293 290 287 282 278 271 266 259 255 252 240 234 227 222 214 209 201 194 184 177 175 185 186 172 167 167 162 159 159 156 154 151
296 298 301 300 300 296 294 293 292 296 294 292 289 287 285 286 288 291 300 302 301 300 299 298 297 306 329 333 327 321 314 304 305 304 305 310 321 330 333 327 320 320 321 319 315 307 304 302 299 298 298 295 292 290 291 287 283 279 275 268 261 256 251 244 231 226 220 211 205 197 190 182 180 183 177 165 163 165 160 162 162 157 155 154 152
301 301 299 298 296 290 290 286 287 287 286 285 282 286 289 291 290 301 304 303 301 303 309 321 331 327 319 321 326 327 320 317 319 319 322 326 328 324 322 322 321 319 315 314 314 314 310 306 302 299 298 299 301 301 300 296 290 286 279 272 262 257 252 247 234 225 217 208 203 192 183 175 171 172 167 165 165 162 163 160 158 157 156 152 151
300 297 291 287 287 286 286 286 285 278 277 282 283 285 295 308 314 311 310 315 321 325 325 324 322 325 324 327 329 327 321 321 322 322 324 325 322 322 323 323 320 319 319 319 319 319 315 312 314 316 318 319 323 324 316 310 308 300 292 282 269 260 255 248 233 219 209 206 194 179 174 173 171 165 165 164 163 162 162 161 159 158 155 154 152
289 287 284 283 282 284 284 285 280 281 286 290 307 315 315 310 311 323 328 323 324 326 326 324 328 327 328 329 326 323 324 322 324 326 325 324 323 322 321 322 322 322 322 323 325 325 322 324 321 324 325 326 328 326 323 322 323 319 312 305 294 274 260 249 239 224 206 195 184 177 173 171 172 170 165 168 167 165 165 164 161 155 153 156 156
280 279 281 279 277 279 283 294 313 324 323 324 322 327 328 334 337 337 335 335 332 330 331 335 332 331 329 328 325 328 323 323 321 321 323 321 319 319 322 321 323 326 326 325 328 330 331 333 329 328 330 331 331 332 331 331 328 329 325 320 313 296 297 285 222 183 193 187 180 179 173 170 171 171 169 165 168 166 165 161 161 162 160 159 159
301 297 301 305 315 321 325 324 320 322 334 329 332 331 335 341 345 342 341 338 337 333 336 333 333 330 330 328 329 328 326 327 322 323 323 322 321 322 324 322 325 320 324 322 326 327 331 333 332 335 327 326 325 328 334 334 332 332 337 330 325 332 325 319 292 205 191 178 168 165 167 167 162 157 160 159 157 160 160 162 164 160 159 156 154
313 320 322 325 325 329 328 331 331 337 335 335 342 340 335 343 341 339 338 337 337 333 331 326 327 324 325 321 321 321 323 323 326 327 325 327 331 329 331 330 331 332 329 324 331 330 332 329 324 322 325 335 338 338 333 333 328 335 334 347 347 345 358 360 7 19 39 97 140 153 158 156 152 154 158 160 158 156 155 156 153 153 150 149 148
325 324 331 328 334 335 333 335 338 338 334 335 336 338 334 338 336 336 330 330 327 327 319 322 318 319 317 317 319 319 319 323 320 324 327 330 333 338 339 341 342 341 341 343 341 335 328 334 340 341 342 345 350 355 358 0 6 4 6 8 10 14 19 25 22 24 36 48 62 78 91 108 126 136 137 141 141 142 141 139 140 140 139 139 142
320 324 327 329 331 329 331 330 331 332 334 334 338 336 337 337 335 338 335 334 333 333 335 332 328 324 327 328 328 328 332 332 333 332 333 330 333 334 339 341 345 348 349 349 348 347 346 344 346 348 351 353 356 358 3 5 11 16 16 20 27 27 23 28 32 30 33 44 49 70 81 94 93 96 96 106 113 120 123 127 129 133 137 140 140
328 332 331 332 330 330 332 335 339 341 337 338 341 340 338 337 334 336 335 336 336 337 337 335 331 334 335 334 333 333 334 335 336 337 337 339 341 341 343 345 345 346 347 351 353 353 353 353 354 354 356 358 0 360 1 6 8 15 25 32 38 41 42 40 35 35 37 40 51 59 77 87 100 100 101 99 106 105 112 112 119 122 128 131 134